Weather History for Akron, CO

Change the Weather History Date:

Sunday, April 7, 2013

  Actual Average Record
Temperature  
Mean Temperature 52 °F 44 °F  
Max Temperature 66 °F 58 °F 83 °F (1952)
Min Temperature 37 °F 31 °F 10 °F (1938)
Degree Days  
Heating Degree Days 13    
Month to date heating degree days 127  
Cooling Degree Days 0    
Month to date cooling degree days 0  
Growing Degree Days 2 (Base 50)    
Moisture  
Dew Point 28 °F    
Average Humidity 48    
Maximum Humidity 76    
Minimum Humidity 19    
Precipitation  
Precipitation T in 0.05 in 0.48 in (1953)
Month to date precipitation 0.03 0.28  
Year to date precipitation 1.64 1.89  
Sea Level Pressure  
Sea Level Pressure 29.68 in    
Wind  
Wind Speed 10 mph (West)    
Max Wind Speed 21 mph    
Max Gust Speed 31 mph    
Visibility 10 miles    
Events Rain    
T = Trace of Precipitation, MM = Missing Value Source: NWS Daily Summary

Daily Weather History Graph

Daily Weather History Graph

Search for Another Location

Airport:

Trip Planner

Search our weather history database for the weather conditions in past years. The results will help you decide how hot, cold, wet, or windy it might be!

Date:

Astronomy

Apr. 07, 2013 Rise Set
Actual Time 6:26 AM MDT 7:23 PM MDT
Civil Twilight 5:59 AM MDT 7:51 PM MDT
Nautical Twilight 5:26 AM MDT 8:24 PM MDT
Astronomical Twilight 4:52 AM MDT 8:58 PM MDT
Moon 4:45 AM MDT (4/7) 4:58 PM MDT (4/7)
Length of Visible Light 13h 52m
Length of Day
12h 57m
Waning Crescent, 8% of the Moon is Illuminated
Apr 7
Waning Crescent
Apr 10
New
Apr 18
First Quarter
Apr 25
Full
May 2
Last Quarter

Hourly Weather History & Observations

Time (MDT) Temp. Windchill Dew Point Humidity Pressure Visibility Wind Dir Wind Speed Gust Speed Precip Events Conditions
12:53 AM 52.0 °F - - N/A% 29.78 in 10.0 mi South 9.2 mph - N/A   Clear
1:53 AM 48.9 °F - - N/A% 29.76 in 10.0 mi South 10.4 mph - N/A   Clear
2:53 AM 46.0 °F 40.6 °F - N/A% 29.75 in 10.0 mi South 11.5 mph - N/A   Clear
3:53 AM 48.0 °F - - N/A% 29.71 in 10.0 mi South 12.7 mph - N/A   Overcast
4:53 AM 46.9 °F - - N/A% 29.72 in 10.0 mi SW 4.6 mph - 0.00 in Rain Light Rain
5:53 AM 42.1 °F 39.2 °F - N/A% 29.74 in 10.0 mi West 4.6 mph - 0.00 in   Overcast
6:53 AM 39.9 °F 33.9 °F - N/A% 29.76 in 10.0 mi WSW 9.2 mph - N/A   Scattered Clouds
7:53 AM 45.0 °F 40.1 °F 37.0 °F 74% 29.76 in 10.0 mi WSW 9.2 mph - N/A   Partly Cloudy
8:53 AM 51.1 °F - 37.9 °F 61% 29.74 in 10.0 mi NW 8.1 mph - N/A   Clear
9:53 AM 55.9 °F - 30.0 °F 37% 29.70 in 10.0 mi NNW 11.5 mph 20.7 mph N/A   Clear
10:53 AM 60.1 °F - 27.0 °F 28% 29.68 in 10.0 mi NW 20.7 mph 26.5 mph N/A   Clear
11:53 AM 63.0 °F - - N/A% 29.67 in 10.0 mi WNW 18.4 mph 31.1 mph N/A   Scattered Clouds
12:53 PM 61.0 °F - - N/A% 29.65 in 10.0 mi West 13.8 mph 21.9 mph N/A   Scattered Clouds
1:53 PM 62.1 °F - - N/A% 29.63 in 10.0 mi Variable 6.9 mph - N/A   Mostly Cloudy
2:53 PM 64.0 °F - - N/A% 29.62 in 10.0 mi SW 11.5 mph - N/A   Scattered Clouds
3:53 PM 64.9 °F - 21.0 °F 19% 29.59 in 10.0 mi North 3.5 mph - N/A   Mostly Cloudy
4:53 PM 63.0 °F - 21.0 °F 20% 29.60 in 10.0 mi Calm Calm - N/A   Mostly Cloudy
5:53 PM 63.0 °F - 26.1 °F 25% 29.61 in 10.0 mi NNE 12.7 mph - N/A   Mostly Cloudy
6:53 PM 55.0 °F - - N/A% 29.63 in 10.0 mi NNE 5.8 mph - N/A   Clear
7:53 PM 51.1 °F - 27.0 °F 39% 29.63 in - North - - N/A   Clear
8:53 PM 48.0 °F - - N/A% 29.66 in 10.0 mi North - - N/A   Scattered Clouds
9:53 PM 45.0 °F - - N/A% 29.65 in 10.0 mi North - - N/A   Clear
10:53 PM 48.0 °F - - N/A% 29.64 in 10.0 mi North - - N/A   Scattered Clouds
11:53 PM 44.1 °F - - N/A% 29.62 in 10.0 mi North - - N/A   Clear